THY2TK HTKJ-FALE

Flight info

Callsign THY2TK
Flight time 3h 51m
Altitude 33000
Route MUMTU UN306 DV/N0462F320 UM310 BONAP/N0459F340 UM310 VMA UB529 RBV B529 ITMIL
Aircraft B738/M-SDE2E3FGHIRWXY/LB1

Departure

Time 2026-05-08 19:00
Airport Kilimanjaro International Airport (HTKJ)

Arrival

Time 2026-05-08 22:52
Airport King Shaka International Airport (FALE)
Time Latitude Longitude Altitude Speed Heading
2026-05-08 18:42 -3.42537 37.06315 2908 ft 0 kts 47°
2026-05-08 18:51 -3.42540 37.06312 2931 ft 4 kts 44°
2026-05-08 18:52 -3.42560 37.06301 2927 ft 4 kts 350°
2026-05-08 18:52 -3.42580 37.06313 2930 ft 4 kts 303°
2026-05-08 18:52 -3.42589 37.06336 2930 ft 3 kts 269°
2026-05-08 18:52 -3.42589 37.06339 2929 ft 1 kts 267°
2026-05-08 18:55 -3.42589 37.06338 2935 ft 0 kts 273°
2026-05-08 18:55 -3.42585 37.06334 2935 ft 1 kts 309°
2026-05-08 18:56 -3.42579 37.06337 2928 ft 1 kts 33°
2026-05-08 18:56 -3.42581 37.06348 2929 ft 3 kts 106°
2026-05-08 18:56 -3.42586 37.06376 2933 ft 6 kts 93°
2026-05-08 18:56 -3.42598 37.06420 2929 ft 8 kts 137°
2026-05-08 18:57 -3.42656 37.06434 2934 ft 10 kts 173°
2026-05-08 18:57 -3.42702 37.06432 2934 ft 11 kts 201°
2026-05-08 18:57 -3.42734 37.06339 2935 ft 12 kts 267°
2026-05-08 18:57 -3.42738 37.06251 2936 ft 13 kts 267°
2026-05-08 18:58 -3.42743 37.06153 2934 ft 15 kts 267°
2026-05-08 18:58 -3.42748 37.06046 2938 ft 16 kts 267°
2026-05-08 18:58 -3.42753 37.05935 2938 ft 12 kts 268°
2026-05-08 18:58 -3.42790 37.05861 2935 ft 13 kts 217°
2026-05-08 18:59 -3.42880 37.05841 2939 ft 14 kts 180°
2026-05-08 18:59 -3.42975 37.05844 2938 ft 8 kts 178°
2026-05-08 18:59 -3.43010 37.05888 2934 ft 10 kts 90°
2026-05-08 18:59 -3.43008 37.05924 2931 ft 21 kts 87°
2026-05-08 19:00 -3.42999 37.06127 2932 ft 67 kts 87°
2026-05-08 19:00 -3.42956 37.07121 2928 ft 146 kts 88°
2026-05-08 19:00 -3.42917 37.08295 3033 ft 183 kts 89°
2026-05-08 19:00 -3.42900 37.09558 3762 ft 183 kts 90°
2026-05-08 19:01 -3.42917 37.10816 4559 ft 178 kts 93°
2026-05-08 19:01 -3.42929 37.12059 5248 ft 179 kts 92°
2026-05-08 19:01 -3.42952 37.13318 5758 ft 190 kts 96°
2026-05-08 19:01 -3.43491 37.14567 5882 ft 207 kts 133°
2026-05-08 19:02 -3.44538 37.15641 6047 ft 225 kts 134°
2026-05-08 19:02 -3.45679 37.16810 6192 ft 245 kts 134°
2026-05-08 19:02 -3.46909 37.18087 6359 ft 265 kts 133°
2026-05-08 19:02 -3.48204 37.19449 6833 ft 273 kts 133°
2026-05-08 19:03 -3.49511 37.20837 7492 ft 275 kts 133°
2026-05-08 19:03 -3.50822 37.22240 8128 ft 278 kts 133°
2026-05-08 19:03 -3.52149 37.23667 8763 ft 281 kts 133°
2026-05-08 19:03 -3.53487 37.25110 9396 ft 284 kts 134°
2026-05-08 19:04 -3.54839 37.26572 10001 ft 288 kts 134°
2026-05-08 19:04 -3.56215 37.28062 10416 ft 299 kts 134°
2026-05-08 19:04 -3.57679 37.29646 10541 ft 319 kts 134°
2026-05-08 19:04 -3.59231 37.31330 10671 ft 338 kts 134°
2026-05-08 19:05 -3.60857 37.33095 10997 ft 348 kts 134°
2026-05-08 19:05 -3.62483 37.34862 11550 ft 350 kts 133°
2026-05-08 19:05 -3.64136 37.36659 12102 ft 352 kts 133°
2026-05-08 19:05 -3.65777 37.38441 12630 ft 355 kts 134°
2026-05-08 19:06 -3.67456 37.40264 13153 ft 358 kts 133°
2026-05-08 19:06 -3.69169 37.42094 13672 ft 361 kts 137°
2026-05-08 19:06 -3.71232 37.43507 14158 ft 362 kts 155°
2026-05-08 19:06 -3.73567 37.44498 14568 ft 366 kts 158°
2026-05-08 19:07 -3.75948 37.45435 15006 ft 368 kts 159°
2026-05-08 19:07 -3.78346 37.46366 15475 ft 371 kts 159°
2026-05-08 19:07 -3.80766 37.47310 15842 ft 376 kts 159°
2026-05-08 19:07 -3.83167 37.48256 16314 ft 377 kts 159°
2026-05-08 19:08 -3.85612 37.49229 16703 ft 381 kts 159°
2026-05-08 19:08 -3.87824 37.50114 17049 ft 384 kts 159°
2026-05-08 19:08 -3.90307 37.51111 17516 ft 385 kts 159°
2026-05-08 19:08 -3.92808 37.52118 17875 ft 390 kts 159°
2026-05-08 19:09 -3.95335 37.53136 18267 ft 392 kts 159°
2026-05-08 19:09 -3.97878 37.54160 18635 ft 394 kts 158°
2026-05-08 19:09 -4.00432 37.55190 18984 ft 397 kts 158°
2026-05-08 19:09 -4.03000 37.56225 19322 ft 399 kts 158°
2026-05-08 19:10 -4.05580 37.57265 19655 ft 401 kts 158°
2026-05-08 19:10 -4.08141 37.58298 19980 ft 403 kts 158°
2026-05-08 19:10 -4.10785 37.59363 20318 ft 406 kts 158°
2026-05-08 19:10 -4.13411 37.60422 20635 ft 408 kts 158°
2026-05-08 19:11 -4.16053 37.61487 20961 ft 410 kts 158°
2026-05-08 19:11 -4.18705 37.62557 21276 ft 412 kts 158°
2026-05-08 19:11 -4.21340 37.63620 21557 ft 415 kts 158°
2026-05-08 19:11 -4.24030 37.64704 21865 ft 417 kts 158°
2026-05-08 19:12 -4.26717 37.65898 22157 ft 420 kts 153°
2026-05-08 19:12 -4.29273 37.67243 22459 ft 421 kts 150°
2026-05-08 19:12 -4.31833 37.68684 22744 ft 423 kts 150°
2026-05-08 19:12 -4.34398 37.70150 23018 ft 426 kts 150°
2026-05-08 19:13 -4.36979 37.71618 23288 ft 428 kts 150°
2026-05-08 19:13 -4.39582 37.73083 23553 ft 430 kts 150°
2026-05-08 19:13 -4.42202 37.74542 23774 ft 432 kts 150°
2026-05-08 19:13 -4.44840 37.76000 24016 ft 433 kts 150°
2026-05-08 19:14 -4.47485 37.77455 24257 ft 434 kts 150°
2026-05-08 19:14 -4.50140 37.78911 24501 ft 435 kts 150°
2026-05-08 19:14 -4.52800 37.80371 24731 ft 437 kts 150°
2026-05-08 19:14 -4.55469 37.81835 24952 ft 438 kts 150°
2026-05-08 19:15 -4.58145 37.83303 25181 ft 439 kts 150°
2026-05-08 19:15 -4.60828 37.84775 25418 ft 440 kts 150°
2026-05-08 19:15 -4.62610 37.85753 25562 ft 441 kts 150°
2026-05-08 19:15 -4.66215 37.87733 25848 ft 443 kts 150°
2026-05-08 19:16 -4.68008 37.88717 25984 ft 444 kts 150°
2026-05-08 19:16 -4.70721 37.90207 26193 ft 445 kts 150°
2026-05-08 19:16 -4.73439 37.91700 26400 ft 446 kts 150°
2026-05-08 19:16 -4.76165 37.93198 26605 ft 448 kts 150°
2026-05-08 19:17 -4.78904 37.94703 26806 ft 449 kts 150°
2026-05-08 19:17 -4.81644 37.96208 26998 ft 450 kts 150°
2026-05-08 19:17 -4.84398 37.97721 27192 ft 452 kts 150°
2026-05-08 19:17 -4.87157 37.99237 27384 ft 453 kts 150°
2026-05-08 19:18 -4.89924 38.00758 27572 ft 454 kts 150°
2026-05-08 19:18 -4.92702 38.02285 27750 ft 456 kts 150°
2026-05-08 19:18 -4.95486 38.03815 27936 ft 457 kts 150°
2026-05-08 19:18 -4.98275 38.05348 28120 ft 458 kts 150°
2026-05-08 19:19 -5.01072 38.06886 28297 ft 459 kts 150°
2026-05-08 19:19 -5.03876 38.08428 28474 ft 460 kts 150°
2026-05-08 19:19 -5.06687 38.09975 28641 ft 461 kts 150°
2026-05-08 19:19 -5.09507 38.11526 28798 ft 463 kts 150°
2026-05-08 19:20 -5.12329 38.13078 28962 ft 464 kts 150°
2026-05-08 19:20 -5.14203 38.14109 29084 ft 464 kts 150°
2026-05-08 19:20 -5.17997 38.16196 29301 ft 465 kts 150°
2026-05-08 19:20 -5.20837 38.17764 29449 ft 466 kts 149°
2026-05-08 19:21 -5.23647 38.19395 29606 ft 467 kts 148°
2026-05-08 19:21 -5.26433 38.21074 29856 ft 466 kts 148°
2026-05-08 19:21 -5.29199 38.22765 30119 ft 464 kts 148°
2026-05-08 19:21 -5.31952 38.24451 30331 ft 463 kts 148°
2026-05-08 19:22 -5.34705 38.26131 30493 ft 463 kts 148°
2026-05-08 19:22 -5.37470 38.27810 30608 ft 465 kts 148°
2026-05-08 19:22 -5.40241 38.29488 30753 ft 465 kts 148°
2026-05-08 19:22 -5.43012 38.31160 30956 ft 464 kts 148°
2026-05-08 19:23 -5.45776 38.32826 31188 ft 462 kts 148°
2026-05-08 19:23 -5.48530 38.34485 31400 ft 461 kts 148°
2026-05-08 19:23 -5.51245 38.36121 31572 ft 461 kts 148°
2026-05-08 19:23 -5.54032 38.37801 31748 ft 461 kts 148°
2026-05-08 19:24 -5.56783 38.39459 31952 ft 460 kts 148°
2026-05-08 19:24 -5.59524 38.41112 32169 ft 459 kts 148°
2026-05-08 19:24 -5.62227 38.42742 32363 ft 459 kts 148°
2026-05-08 19:24 -5.64961 38.44391 32540 ft 458 kts 148°
2026-05-08 19:25 -5.67697 38.46041 32717 ft 458 kts 148°
2026-05-08 19:25 -5.70427 38.47688 32907 ft 458 kts 148°
2026-05-08 19:25 -5.73157 38.49335 33098 ft 457 kts 147°
2026-05-08 19:25 -5.75886 38.50982 33267 ft 457 kts 147°
2026-05-08 19:26 -5.78609 38.52626 33434 ft 457 kts 147°
2026-05-08 19:26 -5.81337 38.54272 33633 ft 456 kts 147°
2026-05-08 19:26 -5.84057 38.55914 33842 ft 456 kts 147°
2026-05-08 19:26 -5.86771 38.57553 34000 ft 455 kts 147°
2026-05-08 19:27 -5.89492 38.59196 33996 ft 457 kts 147°
2026-05-08 19:27 -5.94942 38.62487 34008 ft 456 kts 147°
2026-05-08 19:28 -6.00375 38.65768 34004 ft 455 kts 147°
2026-05-08 19:28 -6.05789 38.69040 34007 ft 453 kts 147°
2026-05-08 19:29 -6.11185 38.72300 34000 ft 452 kts 147°
2026-05-08 19:29 -6.16577 38.75560 33997 ft 452 kts 147°
2026-05-08 19:30 -6.21962 38.78816 33999 ft 452 kts 147°
2026-05-08 19:30 -6.27320 38.82056 33992 ft 452 kts 147°
2026-05-08 19:31 -6.32708 38.85316 33992 ft 452 kts 147°
2026-05-08 19:31 -6.38111 38.88585 33991 ft 453 kts 147°
2026-05-08 19:32 -6.43521 38.91859 33988 ft 454 kts 147°
2026-05-08 19:32 -6.48941 38.95140 33988 ft 455 kts 147°
2026-05-08 19:33 -6.54373 38.98430 33985 ft 456 kts 147°
2026-05-08 19:33 -6.59811 39.01723 33983 ft 457 kts 147°
2026-05-08 19:34 -6.65252 39.05020 33990 ft 457 kts 147°
2026-05-08 19:34 -6.70704 39.08324 33988 ft 457 kts 148°
2026-05-08 19:35 -6.76152 39.11627 33992 ft 457 kts 148°
2026-05-08 19:35 -6.81591 39.14926 33993 ft 456 kts 148°
2026-05-08 19:36 -6.87205 39.17865 33976 ft 457 kts 165°
2026-05-08 19:36 -6.90351 39.18314 33999 ft 459 kts 178°
2026-05-08 19:36 -6.93520 39.17955 33990 ft 461 kts 194°
2026-05-08 19:37 -6.99630 39.15981 33995 ft 461 kts 197°
2026-05-08 19:37 -7.05725 39.13935 33985 ft 461 kts 196°
2026-05-08 19:38 -7.11794 39.11949 33981 ft 461 kts 196°
2026-05-08 19:38 -7.17913 39.09983 33985 ft 462 kts 196°
2026-05-08 19:39 -7.24042 39.08023 33991 ft 462 kts 196°
2026-05-08 19:39 -7.30183 39.06058 33986 ft 463 kts 196°
2026-05-08 19:40 -7.36333 39.04089 33988 ft 464 kts 196°
2026-05-08 19:40 -7.42490 39.02115 33990 ft 465 kts 196°
2026-05-08 19:41 -7.48656 39.00138 33986 ft 465 kts 196°
2026-05-08 19:41 -7.54827 38.98159 33988 ft 466 kts 195°
2026-05-08 19:42 -7.61005 38.96177 33987 ft 466 kts 195°
2026-05-08 19:42 -7.67192 38.94192 33989 ft 467 kts 196°
2026-05-08 19:43 -7.73377 38.92206 33984 ft 466 kts 195°
2026-05-08 19:43 -7.79557 38.90222 33984 ft 466 kts 196°
2026-05-08 19:44 -7.85687 38.88253 33981 ft 465 kts 195°
2026-05-08 19:44 -7.91854 38.86271 33990 ft 464 kts 195°
2026-05-08 19:45 -7.98006 38.84294 33988 ft 464 kts 195°
2026-05-08 19:45 -8.04147 38.82320 33992 ft 463 kts 196°
2026-05-08 19:46 -8.10276 38.80349 33995 ft 462 kts 196°
2026-05-08 19:46 -8.19465 38.77392 34002 ft 462 kts 196°
2026-05-08 19:47 -8.25592 38.75420 33998 ft 462 kts 196°
2026-05-08 19:47 -8.31721 38.73447 34003 ft 462 kts 196°
2026-05-08 19:48 -8.37843 38.71474 34007 ft 462 kts 196°
2026-05-08 19:48 -8.43980 38.69497 34008 ft 463 kts 196°
2026-05-08 19:49 -8.50119 38.67519 34009 ft 463 kts 196°
2026-05-08 19:49 -8.56263 38.65545 34012 ft 464 kts 196°
2026-05-08 19:50 -8.62379 38.63580 34006 ft 464 kts 196°
2026-05-08 19:50 -8.68577 38.61586 34016 ft 465 kts 196°
2026-05-08 19:51 -8.74705 38.59614 34013 ft 465 kts 196°
2026-05-08 19:51 -8.80875 38.57627 34020 ft 465 kts 196°
2026-05-08 19:52 -8.87048 38.55639 34020 ft 466 kts 196°
2026-05-08 19:52 -8.93228 38.53648 34024 ft 466 kts 196°
2026-05-08 19:53 -8.99404 38.51658 34021 ft 466 kts 196°
2026-05-08 19:53 -9.05588 38.49664 34023 ft 466 kts 196°
2026-05-08 19:54 -9.11770 38.47670 34020 ft 466 kts 196°
2026-05-08 19:54 -9.17953 38.45675 34022 ft 466 kts 196°
2026-05-08 19:55 -9.24144 38.43677 34023 ft 466 kts 196°
2026-05-08 19:55 -9.30327 38.41680 34025 ft 466 kts 196°
2026-05-08 19:56 -9.36514 38.39682 34026 ft 466 kts 196°
2026-05-08 19:56 -9.42653 38.37698 34028 ft 466 kts 196°
2026-05-08 19:57 -9.48832 38.35701 34026 ft 466 kts 196°
2026-05-08 19:57 -9.55012 38.33703 34026 ft 466 kts 196°
2026-05-08 19:58 -9.61184 38.31706 34029 ft 466 kts 197°
2026-05-08 19:58 -9.67356 38.29709 34027 ft 466 kts 197°
2026-05-08 19:59 -9.73529 38.27710 34026 ft 466 kts 197°
2026-05-08 19:59 -9.79702 38.25711 34030 ft 466 kts 197°
2026-05-08 20:00 -9.85879 38.23710 34031 ft 466 kts 197°
2026-05-08 20:00 -9.92058 38.21707 34028 ft 466 kts 197°
2026-05-08 20:01 -9.97191 38.20043 34032 ft 466 kts 197°
2026-05-08 20:01 -10.03381 38.18035 34030 ft 467 kts 197°
2026-05-08 20:02 -10.09569 38.16027 34029 ft 467 kts 197°
2026-05-08 20:02 -10.15761 38.14017 34034 ft 467 kts 197°
2026-05-08 20:03 -10.21959 38.12004 34035 ft 468 kts 197°
2026-05-08 20:03 -10.28159 38.09990 34032 ft 468 kts 197°
2026-05-08 20:04 -10.34365 38.07973 34028 ft 468 kts 197°
2026-05-08 20:04 -10.40579 38.05952 34035 ft 469 kts 197°
2026-05-08 20:05 -10.46745 38.03947 34034 ft 469 kts 197°
2026-05-08 20:05 -10.52962 38.01923 34035 ft 469 kts 197°
2026-05-08 20:06 -10.59183 37.99898 34028 ft 470 kts 197°
2026-05-08 20:06 -10.65410 37.97870 34029 ft 470 kts 197°
2026-05-08 20:07 -10.71629 37.95844 34028 ft 469 kts 197°
2026-05-08 20:07 -10.77855 37.93814 34027 ft 469 kts 197°
2026-05-08 20:08 -10.84072 37.91787 34022 ft 469 kts 197°
2026-05-08 20:08 -10.90290 37.89758 34025 ft 469 kts 197°
2026-05-08 20:09 -10.96512 37.87727 34022 ft 469 kts 197°
2026-05-08 20:09 -11.02726 37.85697 34022 ft 469 kts 197°
2026-05-08 20:10 -11.08947 37.83665 34018 ft 469 kts 197°
2026-05-08 20:10 -11.15170 37.81631 34019 ft 469 kts 197°
2026-05-08 20:11 -11.21387 37.79598 34018 ft 469 kts 197°
2026-05-08 20:11 -11.27610 37.77562 34018 ft 470 kts 197°
2026-05-08 20:12 -11.33831 37.75526 34019 ft 470 kts 197°
2026-05-08 20:12 -11.40058 37.73487 34019 ft 470 kts 197°
2026-05-08 20:13 -11.46279 37.71448 34019 ft 470 kts 197°
2026-05-08 20:13 -11.52507 37.69407 34020 ft 470 kts 198°
2026-05-08 20:14 -11.58737 37.67364 34022 ft 470 kts 198°
2026-05-08 20:14 -11.64970 37.65314 34024 ft 471 kts 198°
2026-05-08 20:15 -11.71145 37.63222 34022 ft 471 kts 198°
2026-05-08 20:15 -11.77361 37.61090 34023 ft 471 kts 198°
2026-05-08 20:16 -11.83583 37.58962 34024 ft 471 kts 198°
2026-05-08 20:16 -11.89807 37.56837 34020 ft 472 kts 198°
2026-05-08 20:17 -11.96034 37.54713 34023 ft 472 kts 198°
2026-05-08 20:17 -12.02258 37.52588 34027 ft 472 kts 198°
2026-05-08 20:18 -12.08492 37.50459 34023 ft 472 kts 198°
2026-05-08 20:18 -12.14726 37.48329 34027 ft 472 kts 198°
2026-05-08 20:19 -12.20964 37.46196 34027 ft 472 kts 199°
2026-05-08 20:19 -12.27199 37.44064 34025 ft 473 kts 199°
2026-05-08 20:20 -12.33438 37.41928 34023 ft 473 kts 199°
2026-05-08 20:20 -12.39683 37.39790 34024 ft 473 kts 199°
2026-05-08 20:21 -12.45888 37.37664 34026 ft 473 kts 199°
2026-05-08 20:21 -12.52137 37.35522 34023 ft 473 kts 199°
2026-05-08 20:22 -12.58390 37.33378 34023 ft 474 kts 199°
2026-05-08 20:22 -12.64637 37.31234 34027 ft 474 kts 199°
2026-05-08 20:23 -12.70893 37.29086 34024 ft 474 kts 199°
2026-05-08 20:23 -12.77150 37.26936 34028 ft 474 kts 199°
2026-05-08 20:24 -12.83412 37.24788 34030 ft 474 kts 199°
2026-05-08 20:24 -12.89694 37.22693 34038 ft 474 kts 198°
2026-05-08 20:25 -12.95979 37.20622 34037 ft 475 kts 198°
2026-05-08 20:25 -13.02265 37.18543 34039 ft 475 kts 198°
2026-05-08 20:26 -13.08511 37.16470 34045 ft 475 kts 198°
2026-05-08 20:26 -13.14797 37.14379 34047 ft 475 kts 198°
2026-05-08 20:27 -13.21085 37.12287 34052 ft 475 kts 199°
2026-05-08 20:27 -13.27374 37.10194 34055 ft 475 kts 199°
2026-05-08 20:28 -13.33661 37.08101 34060 ft 475 kts 199°
2026-05-08 20:28 -13.39952 37.06005 34063 ft 475 kts 199°
2026-05-08 20:29 -13.46242 37.03908 34066 ft 475 kts 199°
2026-05-08 20:29 -13.52528 37.01811 34067 ft 475 kts 199°
2026-05-08 20:30 -13.58811 36.99715 34067 ft 475 kts 199°
2026-05-08 20:30 -13.65094 36.97616 34062 ft 475 kts 199°
2026-05-08 20:31 -13.71381 36.95516 34058 ft 475 kts 199°
2026-05-08 20:31 -13.77635 36.93425 34066 ft 475 kts 199°
2026-05-08 20:32 -13.83921 36.91323 34059 ft 475 kts 199°
2026-05-08 20:32 -13.90211 36.89217 34061 ft 475 kts 199°
2026-05-08 20:33 -13.96505 36.87109 34054 ft 476 kts 199°
2026-05-08 20:33 -14.02801 36.85000 34058 ft 476 kts 199°
2026-05-08 20:34 -14.09107 36.82916 34057 ft 476 kts 199°
2026-05-08 20:35 -14.18563 36.79813 34051 ft 476 kts 199°
2026-05-08 20:35 -14.24867 36.77738 34047 ft 475 kts 199°
2026-05-08 20:36 -14.31167 36.75660 34047 ft 475 kts 199°
2026-05-08 20:36 -14.37463 36.73582 34049 ft 475 kts 199°
2026-05-08 20:37 -14.43755 36.71504 34041 ft 474 kts 199°
2026-05-08 20:37 -14.49997 36.69442 34043 ft 474 kts 200°
2026-05-08 20:38 -14.56279 36.67366 34041 ft 473 kts 200°
2026-05-08 20:38 -14.62555 36.65290 34041 ft 473 kts 200°
2026-05-08 20:39 -14.68818 36.63217 34042 ft 472 kts 200°
2026-05-08 20:39 -14.75079 36.61143 34045 ft 472 kts 200°
2026-05-08 20:40 -14.81330 36.59072 34045 ft 472 kts 200°
2026-05-08 20:40 -14.87584 36.56998 34049 ft 471 kts 200°
2026-05-08 20:41 -14.93826 36.54927 34038 ft 471 kts 200°
2026-05-08 20:41 -15.00057 36.52858 34041 ft 470 kts 200°
2026-05-08 20:42 -15.06285 36.50789 34045 ft 469 kts 200°
2026-05-08 20:42 -15.12467 36.48734 34045 ft 469 kts 200°
2026-05-08 20:43 -15.18678 36.46669 34045 ft 468 kts 200°
2026-05-08 20:43 -15.24880 36.44604 34048 ft 468 kts 201°
2026-05-08 20:44 -15.31077 36.42541 34048 ft 467 kts 201°
2026-05-08 20:44 -15.37259 36.40481 34044 ft 467 kts 201°
2026-05-08 20:45 -15.43410 36.38430 34048 ft 466 kts 201°
2026-05-08 20:45 -15.49587 36.36369 34039 ft 466 kts 201°
2026-05-08 20:46 -15.55772 36.34304 34043 ft 466 kts 201°
2026-05-08 20:46 -15.61955 36.32238 34043 ft 466 kts 201°
2026-05-08 20:47 -15.68126 36.30175 34041 ft 466 kts 201°
2026-05-08 20:47 -15.74301 36.28109 34035 ft 466 kts 201°
2026-05-08 20:48 -15.80442 36.26054 34035 ft 467 kts 201°
2026-05-08 20:48 -15.86629 36.23981 34039 ft 467 kts 201°
2026-05-08 20:49 -15.92814 36.21908 34033 ft 467 kts 201°
2026-05-08 20:49 -15.98997 36.19834 34034 ft 467 kts 202°
2026-05-08 20:50 -16.04133 36.18087 34030 ft 467 kts 202°
2026-05-08 20:50 -16.10303 36.15969 34028 ft 467 kts 202°
2026-05-08 20:51 -16.16479 36.13848 34026 ft 467 kts 202°
2026-05-08 20:51 -16.22657 36.11728 34022 ft 467 kts 202°
2026-05-08 20:52 -16.28829 36.09610 34020 ft 467 kts 202°
2026-05-08 20:52 -16.35000 36.07492 34016 ft 466 kts 202°
2026-05-08 20:53 -16.41193 36.05363 34030 ft 471 kts 202°
2026-05-08 20:53 -16.47418 36.03221 34023 ft 476 kts 202°
2026-05-08 20:54 -16.53747 36.01044 34024 ft 480 kts 202°
2026-05-08 20:54 -16.60112 35.98853 34017 ft 483 kts 202°
2026-05-08 20:55 -16.66526 35.96644 34007 ft 485 kts 202°
2026-05-08 20:55 -16.72933 35.94436 34016 ft 485 kts 202°
2026-05-08 20:56 -16.79342 35.92226 34000 ft 485 kts 202°
2026-05-08 20:56 -16.85702 35.90031 34011 ft 484 kts 202°
2026-05-08 20:57 -16.92093 35.87823 33999 ft 483 kts 202°
2026-05-08 20:57 -16.98465 35.85619 34002 ft 481 kts 203°
2026-05-08 20:58 -17.04819 35.83421 34013 ft 480 kts 203°
2026-05-08 20:58 -17.11118 35.81240 34000 ft 479 kts 203°
2026-05-08 20:59 -17.17445 35.79048 34014 ft 478 kts 203°
2026-05-08 20:59 -17.23755 35.76859 34014 ft 477 kts 203°
2026-05-08 21:00 -17.30058 35.74672 34012 ft 476 kts 203°
2026-05-08 21:00 -17.36322 35.72497 34015 ft 476 kts 203°
2026-05-08 21:01 -17.42604 35.70313 34010 ft 475 kts 203°
2026-05-08 21:01 -17.48880 35.68130 34015 ft 475 kts 204°
2026-05-08 21:02 -17.55162 35.65945 34013 ft 475 kts 204°
2026-05-08 21:02 -17.61432 35.63761 34014 ft 475 kts 204°
2026-05-08 21:03 -17.67699 35.61576 34013 ft 475 kts 204°
2026-05-08 21:03 -17.73965 35.59389 34008 ft 474 kts 204°
2026-05-08 21:04 -17.80224 35.57203 34010 ft 474 kts 204°
2026-05-08 21:04 -17.86442 35.55030 34005 ft 474 kts 205°
2026-05-08 21:05 -17.92695 35.52843 34012 ft 473 kts 205°
2026-05-08 21:05 -17.98932 35.50660 34014 ft 472 kts 205°
2026-05-08 21:06 -18.05167 35.48476 34014 ft 471 kts 205°
2026-05-08 21:06 -18.11357 35.46306 34014 ft 471 kts 205°
2026-05-08 21:07 -18.17576 35.44124 34013 ft 470 kts 205°
2026-05-08 21:07 -18.23773 35.41949 34019 ft 469 kts 205°
2026-05-08 21:08 -18.29960 35.39775 34013 ft 468 kts 205°
2026-05-08 21:08 -18.36103 35.37615 34010 ft 467 kts 205°
2026-05-08 21:09 -18.42265 35.35447 34019 ft 466 kts 205°
2026-05-08 21:09 -18.48424 35.33277 34012 ft 466 kts 205°
2026-05-08 21:10 -18.54570 35.31110 34014 ft 465 kts 205°
2026-05-08 21:10 -18.60673 35.28958 34011 ft 465 kts 205°
2026-05-08 21:11 -18.66812 35.26797 34017 ft 465 kts 205°
2026-05-08 21:11 -18.72962 35.24631 34016 ft 465 kts 205°
2026-05-08 21:12 -18.79107 35.22465 34018 ft 465 kts 205°
2026-05-08 21:12 -18.85256 35.20295 34021 ft 466 kts 205°
2026-05-08 21:13 -18.91407 35.18122 34024 ft 466 kts 205°
2026-05-08 21:13 -18.97557 35.15948 34019 ft 467 kts 205°
2026-05-08 21:14 -19.03716 35.13769 34016 ft 467 kts 205°
2026-05-08 21:14 -19.09879 35.11587 34020 ft 467 kts 206°
2026-05-08 21:15 -19.16037 35.09405 34015 ft 467 kts 206°
2026-05-08 21:15 -19.22155 35.07236 34013 ft 466 kts 206°
2026-05-08 21:16 -19.28316 35.05049 34013 ft 466 kts 206°
2026-05-08 21:16 -19.34464 35.02866 34011 ft 466 kts 206°
2026-05-08 21:17 -19.40612 35.00681 34009 ft 465 kts 206°
2026-05-08 21:17 -19.46751 34.98497 34013 ft 465 kts 206°
2026-05-08 21:18 -19.52884 34.96313 34004 ft 464 kts 206°
2026-05-08 21:18 -19.59006 34.94132 33998 ft 464 kts 206°
2026-05-08 21:19 -19.65075 34.91967 34000 ft 463 kts 206°
2026-05-08 21:19 -19.71185 34.89786 33995 ft 463 kts 206°
2026-05-08 21:20 -19.77285 34.87607 33997 ft 462 kts 206°
2026-05-08 21:20 -19.83380 34.85413 34001 ft 461 kts 206°
2026-05-08 21:21 -19.89451 34.83204 33998 ft 461 kts 206°
2026-05-08 21:21 -19.95522 34.80991 34000 ft 461 kts 206°
2026-05-08 21:22 -20.01593 34.78779 34004 ft 460 kts 206°
2026-05-08 21:22 -20.07616 34.76584 34005 ft 460 kts 206°
2026-05-08 21:23 -20.13673 34.74376 34005 ft 460 kts 206°
2026-05-08 21:23 -20.19726 34.72167 34004 ft 460 kts 206°
2026-05-08 21:24 -20.25785 34.69953 34008 ft 460 kts 206°
2026-05-08 21:24 -20.31842 34.67739 34010 ft 460 kts 206°
2026-05-08 21:25 -20.37904 34.65521 34017 ft 460 kts 206°
2026-05-08 21:25 -20.43962 34.63303 34015 ft 460 kts 206°
2026-05-08 21:26 -20.49990 34.61094 34013 ft 461 kts 206°
2026-05-08 21:26 -20.56070 34.58864 34012 ft 461 kts 207°
2026-05-08 21:27 -20.62152 34.56631 34014 ft 462 kts 207°
2026-05-08 21:27 -20.68234 34.54396 34018 ft 462 kts 207°
2026-05-08 21:28 -20.74285 34.52171 34016 ft 463 kts 207°
2026-05-08 21:28 -20.80393 34.49923 34017 ft 463 kts 207°
2026-05-08 21:29 -20.86494 34.47676 34011 ft 463 kts 207°
2026-05-08 21:29 -20.92593 34.45427 34017 ft 463 kts 207°
2026-05-08 21:30 -20.98687 34.43185 34019 ft 463 kts 207°
2026-05-08 21:30 -21.04772 34.41015 34019 ft 464 kts 206°
2026-05-08 21:31 -21.10901 34.38850 34029 ft 463 kts 206°
2026-05-08 21:31 -21.17027 34.36676 34020 ft 464 kts 207°
2026-05-08 21:32 -21.23154 34.34493 34018 ft 464 kts 207°
2026-05-08 21:32 -21.29282 34.32306 34024 ft 463 kts 207°
2026-05-08 21:33 -21.35403 34.30120 34019 ft 464 kts 207°
2026-05-08 21:33 -21.41496 34.27942 34026 ft 464 kts 207°
2026-05-08 21:34 -21.47624 34.25749 34029 ft 464 kts 207°
2026-05-08 21:34 -21.53768 34.23549 34031 ft 465 kts 207°
2026-05-08 21:35 -21.59921 34.21344 34024 ft 465 kts 207°
2026-05-08 21:35 -21.66057 34.19143 34032 ft 464 kts 207°
2026-05-08 21:36 -21.72186 34.16942 34030 ft 464 kts 207°
2026-05-08 21:36 -21.78318 34.14739 34033 ft 464 kts 207°
2026-05-08 21:37 -21.84441 34.12536 34030 ft 464 kts 207°
2026-05-08 21:37 -21.89530 34.10704 34030 ft 464 kts 207°
2026-05-08 21:38 -21.96649 34.08138 34034 ft 463 kts 207°
2026-05-08 21:38 -22.02760 34.05934 34034 ft 463 kts 207°
2026-05-08 21:39 -22.07883 34.04084 34035 ft 463 kts 207°
2026-05-08 21:39 -22.13991 34.01877 34029 ft 463 kts 207°
2026-05-08 21:40 -22.20050 33.99664 34037 ft 462 kts 208°
2026-05-08 21:40 -22.26147 33.97420 34036 ft 462 kts 208°
2026-05-08 21:41 -22.35292 33.94056 34028 ft 462 kts 208°
2026-05-08 21:41 -22.41387 33.91812 34020 ft 463 kts 208°
2026-05-08 21:42 -22.47476 33.89569 34026 ft 462 kts 208°
2026-05-08 21:42 -22.53574 33.87318 34025 ft 462 kts 208°
2026-05-08 21:43 -22.59620 33.85079 34026 ft 462 kts 208°
2026-05-08 21:43 -22.65707 33.82822 34030 ft 462 kts 208°
2026-05-08 21:44 -22.71802 33.80559 34024 ft 463 kts 208°
2026-05-08 21:44 -22.77896 33.78295 34027 ft 463 kts 208°
2026-05-08 21:45 -22.83993 33.76028 34028 ft 463 kts 208°
2026-05-08 21:45 -22.90097 33.73757 34029 ft 463 kts 208°
2026-05-08 21:46 -22.96198 33.71484 34025 ft 463 kts 208°
2026-05-08 21:46 -23.02301 33.69209 34031 ft 463 kts 208°
2026-05-08 21:47 -23.08407 33.66930 34027 ft 463 kts 208°
2026-05-08 21:47 -23.14463 33.64667 34028 ft 463 kts 209°
2026-05-08 21:48 -23.20552 33.62390 34025 ft 462 kts 209°
2026-05-08 21:48 -23.26637 33.60112 34028 ft 462 kts 209°
2026-05-08 21:49 -23.32681 33.57781 34021 ft 459 kts 210°
2026-05-08 21:49 -23.38665 33.55329 34024 ft 458 kts 211°
2026-05-08 21:50 -23.44642 33.52886 34023 ft 458 kts 211°
2026-05-08 21:50 -23.50584 33.50475 34022 ft 458 kts 211°
2026-05-08 21:51 -23.56559 33.48060 34022 ft 458 kts 210°
2026-05-08 21:51 -23.62530 33.45655 34024 ft 457 kts 211°
2026-05-08 21:52 -23.68497 33.43249 34024 ft 457 kts 211°
2026-05-08 21:52 -23.74462 33.40839 34017 ft 456 kts 211°
2026-05-08 21:53 -23.80419 33.38430 34009 ft 456 kts 211°
2026-05-08 21:53 -23.86367 33.36021 34026 ft 456 kts 211°
2026-05-08 21:54 -23.92278 33.33625 34025 ft 455 kts 211°
2026-05-08 21:54 -23.98216 33.31216 34024 ft 455 kts 211°
2026-05-08 21:55 -24.04153 33.28805 34016 ft 455 kts 211°
2026-05-08 21:56 -24.13054 33.25185 34019 ft 455 kts 211°
2026-05-08 21:56 -24.18998 33.22765 34014 ft 455 kts 211°
2026-05-08 21:57 -24.24932 33.20346 34009 ft 455 kts 211°
2026-05-08 21:57 -24.30873 33.17923 34014 ft 455 kts 211°
2026-05-08 21:58 -24.36772 33.15514 34011 ft 456 kts 211°
2026-05-08 21:58 -24.42716 33.13084 34013 ft 456 kts 211°
2026-05-08 21:59 -24.48662 33.10651 34015 ft 456 kts 211°
2026-05-08 21:59 -24.54607 33.08215 34017 ft 456 kts 212°
2026-05-08 22:00 -24.60568 33.05809 34013 ft 458 kts 210°
2026-05-08 22:00 -24.66673 33.03640 34006 ft 461 kts 208°
2026-05-08 22:01 -24.72741 33.01516 34009 ft 460 kts 209°
2026-05-08 22:01 -24.78825 32.99335 34011 ft 459 kts 209°
2026-05-08 22:02 -24.84897 32.97149 34009 ft 459 kts 209°
2026-05-08 22:02 -24.90984 32.94979 34012 ft 459 kts 209°
2026-05-08 22:03 -24.97063 32.92813 34006 ft 459 kts 209°
2026-05-08 22:03 -25.03136 32.90644 34006 ft 459 kts 209°
2026-05-08 22:04 -25.09208 32.88471 34006 ft 458 kts 209°
2026-05-08 22:04 -25.15232 32.86313 34003 ft 458 kts 209°
2026-05-08 22:05 -25.21300 32.84138 34009 ft 458 kts 209°
2026-05-08 22:05 -25.27357 32.81960 34012 ft 458 kts 209°
2026-05-08 22:06 -25.33419 32.79775 34009 ft 458 kts 209°
2026-05-08 22:06 -25.39470 32.77592 34007 ft 458 kts 209°
2026-05-08 22:07 -25.45524 32.75406 34007 ft 458 kts 209°
2026-05-08 22:07 -25.51584 32.73215 34003 ft 458 kts 209°
2026-05-08 22:08 -25.57641 32.71023 34005 ft 458 kts 209°
2026-05-08 22:08 -25.63697 32.68829 34012 ft 458 kts 209°
2026-05-08 22:09 -25.69709 32.66649 34015 ft 458 kts 209°
2026-05-08 22:09 -25.75774 32.64447 34027 ft 458 kts 209°
2026-05-08 22:10 -25.81844 32.62240 34023 ft 459 kts 209°
2026-05-08 22:10 -25.87973 32.60142 34009 ft 469 kts 202°
2026-05-08 22:11 -25.94471 32.58953 34023 ft 475 kts 199°
2026-05-08 22:11 -26.01023 32.57890 34023 ft 475 kts 199°
2026-05-08 22:12 -26.07567 32.56791 34023 ft 475 kts 199°
2026-05-08 22:12 -26.14053 32.55665 34023 ft 475 kts 200°
2026-05-08 22:13 -26.20580 32.54518 34020 ft 475 kts 200°
2026-05-08 22:13 -26.27102 32.53372 34021 ft 475 kts 200°
2026-05-08 22:14 -26.33628 32.52226 34020 ft 475 kts 200°
2026-05-08 22:14 -26.40160 32.51078 34020 ft 475 kts 200°
2026-05-08 22:15 -26.46690 32.49929 34026 ft 475 kts 200°
2026-05-08 22:15 -26.53226 32.48778 34023 ft 475 kts 200°
2026-05-08 22:16 -26.59753 32.47627 34031 ft 474 kts 200°
2026-05-08 22:16 -26.66282 32.46474 34030 ft 474 kts 200°
2026-05-08 22:17 -26.72764 32.45327 34029 ft 474 kts 199°
2026-05-08 22:17 -26.79289 32.44172 34034 ft 475 kts 199°
2026-05-08 22:18 -26.85813 32.43016 34028 ft 475 kts 199°
2026-05-08 22:18 -26.92348 32.41865 34033 ft 475 kts 199°
2026-05-08 22:19 -26.98881 32.40719 34031 ft 475 kts 199°
2026-05-08 22:19 -27.05423 32.39569 34035 ft 475 kts 199°
2026-05-08 22:20 -27.11936 32.38422 34035 ft 476 kts 199°
2026-05-08 22:20 -27.18477 32.37268 34033 ft 476 kts 199°
2026-05-08 22:21 -27.25027 32.36112 34035 ft 476 kts 199°
2026-05-08 22:21 -27.31572 32.34954 34033 ft 476 kts 199°
2026-05-08 22:22 -27.38126 32.33794 34030 ft 477 kts 199°
2026-05-08 22:22 -27.44682 32.32632 34035 ft 477 kts 199°
2026-05-08 22:23 -27.51246 32.31467 34039 ft 478 kts 199°
2026-05-08 22:23 -27.57706 32.30334 34014 ft 455 kts 199°
2026-05-08 22:23 -27.60781 32.29802 34016 ft 441 kts 200°
2026-05-08 22:24 -27.63759 32.29276 34030 ft 438 kts 200°
2026-05-08 22:24 -27.66777 32.28732 33820 ft 440 kts 200°
2026-05-08 22:24 -27.69789 32.28187 33524 ft 435 kts 200°
2026-05-08 22:24 -27.72767 32.27654 33106 ft 431 kts 200°
2026-05-08 22:25 -27.75720 32.27126 32737 ft 427 kts 200°
2026-05-08 22:25 -27.77660 32.26779 32487 ft 425 kts 200°
2026-05-08 22:25 -27.80573 32.26258 32103 ft 422 kts 199°
2026-05-08 22:25 -27.83463 32.25741 31724 ft 419 kts 199°
2026-05-08 22:26 -27.86344 32.25226 31351 ft 417 kts 199°
2026-05-08 22:26 -27.89196 32.24715 30975 ft 414 kts 199°
2026-05-08 22:26 -27.92033 32.24207 30612 ft 411 kts 199°
2026-05-08 22:26 -27.94851 32.23702 30244 ft 409 kts 199°
2026-05-08 22:27 -27.97659 32.23199 29825 ft 407 kts 199°
2026-05-08 22:27 -28.00448 32.22699 29417 ft 404 kts 199°
2026-05-08 22:27 -28.03211 32.22205 29010 ft 401 kts 199°
2026-05-08 22:27 -28.05958 32.21713 28626 ft 397 kts 199°
2026-05-08 22:28 -28.08680 32.21225 28246 ft 394 kts 199°
2026-05-08 22:28 -28.11347 32.20746 27877 ft 391 kts 199°
2026-05-08 22:28 -28.14030 32.20264 27511 ft 388 kts 199°
2026-05-08 22:28 -28.16682 32.19788 27144 ft 385 kts 199°
2026-05-08 22:29 -28.19318 32.19313 26789 ft 382 kts 199°
2026-05-08 22:29 -28.21934 32.18842 26428 ft 380 kts 199°
2026-05-08 22:29 -28.24542 32.18372 26059 ft 377 kts 199°
2026-05-08 22:29 -28.27128 32.17906 25712 ft 375 kts 199°
2026-05-08 22:30 -28.29648 32.17452 25352 ft 373 kts 199°
2026-05-08 22:30 -28.32206 32.16990 25006 ft 371 kts 199°
2026-05-08 22:30 -28.34748 32.16531 24659 ft 369 kts 199°
2026-05-08 22:30 -28.37276 32.16075 24295 ft 368 kts 199°
2026-05-08 22:31 -28.39798 32.15619 23948 ft 366 kts 199°
2026-05-08 22:31 -28.42310 32.15164 23580 ft 365 kts 199°
2026-05-08 22:31 -28.44814 32.14712 23170 ft 363 kts 199°
2026-05-08 22:31 -28.47303 32.14262 22804 ft 361 kts 199°
2026-05-08 22:32 -28.49774 32.13816 22436 ft 358 kts 199°
2026-05-08 22:32 -28.52228 32.13372 22089 ft 356 kts 199°
2026-05-08 22:32 -28.54660 32.12932 21742 ft 353 kts 199°
2026-05-08 22:32 -28.57078 32.12494 21409 ft 350 kts 199°
2026-05-08 22:33 -28.59477 32.12059 21062 ft 348 kts 199°
2026-05-08 22:33 -28.61854 32.11627 20737 ft 345 kts 198°
2026-05-08 22:33 -28.64219 32.11197 20403 ft 343 kts 198°
2026-05-08 22:33 -28.66569 32.10771 20077 ft 341 kts 198°
2026-05-08 22:34 -28.68903 32.10347 19757 ft 339 kts 198°
2026-05-08 22:34 -28.71229 32.09924 19425 ft 337 kts 198°
2026-05-08 22:34 -28.73451 32.09235 19097 ft 325 kts 211°
2026-05-08 22:34 -28.75438 32.08073 18550 ft 321 kts 222°
2026-05-08 22:35 -28.77150 32.06531 18145 ft 317 kts 227°
2026-05-08 22:35 -28.78820 32.04898 17750 ft 315 kts 227°
2026-05-08 22:35 -28.80451 32.03286 17397 ft 313 kts 227°
2026-05-08 22:35 -28.82072 32.01686 17066 ft 311 kts 227°
2026-05-08 22:36 -28.83701 32.00084 16736 ft 309 kts 227°
2026-05-08 22:36 -28.85323 31.98493 16415 ft 306 kts 227°
2026-05-08 22:36 -28.86936 31.96915 16097 ft 304 kts 226°
2026-05-08 22:36 -28.88538 31.95349 15773 ft 302 kts 226°
2026-05-08 22:37 -28.90130 31.93793 15457 ft 300 kts 226°
2026-05-08 22:37 -28.91712 31.92247 15148 ft 299 kts 226°
2026-05-08 22:37 -28.93283 31.90710 14835 ft 297 kts 226°
2026-05-08 22:37 -28.94850 31.89178 14530 ft 296 kts 226°
2026-05-08 22:38 -28.96409 31.87653 14219 ft 294 kts 226°
2026-05-08 22:38 -28.97959 31.86137 13907 ft 293 kts 226°
2026-05-08 22:38 -28.99505 31.84624 13568 ft 292 kts 225°
2026-05-08 22:38 -29.01046 31.83115 13231 ft 291 kts 225°
2026-05-08 22:39 -29.02579 31.81615 12911 ft 289 kts 225°
2026-05-08 22:39 -29.04028 31.80038 12483 ft 289 kts 232°
2026-05-08 22:39 -29.05343 31.78309 12142 ft 287 kts 234°
2026-05-08 22:39 -29.06615 31.76555 11809 ft 286 kts 234°
2026-05-08 22:40 -29.07881 31.74798 11490 ft 285 kts 234°
2026-05-08 22:40 -29.09146 31.73054 11177 ft 285 kts 233°
2026-05-08 22:40 -29.10414 31.71317 10867 ft 284 kts 233°
2026-05-08 22:40 -29.11680 31.69591 10559 ft 283 kts 233°
2026-05-08 22:41 -29.12945 31.67871 10292 ft 281 kts 232°
2026-05-08 22:41 -29.14189 31.66186 10137 ft 275 kts 232°
2026-05-08 22:41 -29.15408 31.64536 9988 ft 269 kts 232°
2026-05-08 22:41 -29.16615 31.62903 9683 ft 268 kts 232°
2026-05-08 22:42 -29.17817 31.61277 9400 ft 267 kts 232°
2026-05-08 22:42 -29.18997 31.59680 9121 ft 266 kts 232°
2026-05-08 22:42 -29.20187 31.58070 8839 ft 265 kts 232°
2026-05-08 22:42 -29.21373 31.56465 8545 ft 264 kts 232°
2026-05-08 22:43 -29.22555 31.54865 8277 ft 263 kts 232°
2026-05-08 22:43 -29.23733 31.53270 8007 ft 262 kts 232°
2026-05-08 22:43 -29.24908 31.51678 7728 ft 261 kts 232°
2026-05-08 22:43 -29.26079 31.50092 7454 ft 261 kts 232°
2026-05-08 22:44 -29.27248 31.48508 7173 ft 260 kts 232°
2026-05-08 22:44 -29.28416 31.46924 6890 ft 260 kts 232°
2026-05-08 22:44 -29.29584 31.45340 6612 ft 260 kts 232°
2026-05-08 22:44 -29.30750 31.43756 6324 ft 260 kts 232°
2026-05-08 22:45 -29.31921 31.42168 6017 ft 261 kts 232°
2026-05-08 22:45 -29.33090 31.40581 5736 ft 260 kts 232°
2026-05-08 22:45 -29.34257 31.38994 5461 ft 260 kts 232°
2026-05-08 22:45 -29.35407 31.37432 5321 ft 253 kts 232°
2026-05-08 22:46 -29.36521 31.35919 5212 ft 242 kts 232°
2026-05-08 22:46 -29.37588 31.34468 5032 ft 233 kts 233°
2026-05-08 22:46 -29.38609 31.33081 4918 ft 220 kts 233°
2026-05-08 22:46 -29.39568 31.31778 4805 ft 209 kts 233°
2026-05-08 22:47 -29.40495 31.30516 4557 ft 204 kts 233°
2026-05-08 22:47 -29.41392 31.29295 4350 ft 198 kts 233°
2026-05-08 22:47 -29.42371 31.28193 4157 ft 198 kts 217°
2026-05-08 22:47 -29.43516 31.27298 3972 ft 199 kts 216°
2026-05-08 22:48 -29.44648 31.26377 3782 ft 200 kts 218°
2026-05-08 22:48 -29.45763 31.25421 3621 ft 199 kts 218°
2026-05-08 22:48 -29.46857 31.24468 3489 ft 200 kts 218°
2026-05-08 22:48 -29.47958 31.23503 3251 ft 202 kts 218°
2026-05-08 22:49 -29.49072 31.22527 2973 ft 201 kts 218°
2026-05-08 22:49 -29.51247 31.20621 2462 ft 189 kts 217°
2026-05-08 22:49 -29.52255 31.19739 2245 ft 174 kts 217°
2026-05-08 22:50 -29.53183 31.18925 1998 ft 159 kts 217°
2026-05-08 22:50 -29.54035 31.18179 1782 ft 153 kts 217°
2026-05-08 22:50 -29.54872 31.17446 1584 ft 150 kts 217°
2026-05-08 22:50 -29.55699 31.16722 1380 ft 150 kts 217°
2026-05-08 22:51 -29.56529 31.15995 1174 ft 149 kts 217°
2026-05-08 22:51 -29.57345 31.15280 966 ft 146 kts 217°
2026-05-08 22:51 -29.58141 31.14583 768 ft 143 kts 217°
2026-05-08 22:51 -29.58923 31.13898 579 ft 141 kts 217°
2026-05-08 22:52 -29.59698 31.13221 394 ft 139 kts 217°
2026-05-08 22:52 -29.60457 31.12556 307 ft 129 kts 217°
2026-05-08 22:52 -29.60936 31.12144 303 ft 16 kts 217°
2026-05-08 22:52 -29.60968 31.12062 302 ft 11 kts 309°
2026-05-08 22:53 -29.60943 31.12047 301 ft 0 kts 343°
2026-05-08 22:53 -29.60942 31.12046 301 ft 1 kts 347°
2026-05-08 22:53 -29.60916 31.12044 302 ft 7 kts 357°
2026-05-08 22:53 -29.60861 31.12015 303 ft 11 kts 300°
2026-05-08 22:54 -29.60902 31.11927 303 ft 16 kts 218°
2026-05-08 22:54 -29.61006 31.11836 304 ft 21 kts 217°
2026-05-08 22:54 -29.61122 31.11734 303 ft 22 kts 217°
2026-05-08 22:54 -29.61241 31.11629 301 ft 21 kts 217°
2026-05-08 22:55 -29.61313 31.11506 301 ft 17 kts 295°
2026-05-08 22:55 -29.61306 31.11490 301 ft 0 kts 296°
2026-05-08 22:55 -29.61304 31.11485 302 ft 1 kts 297°
2026-05-08 22:56 -29.61303 31.11483 301 ft 0 kts 297°
2026-05-08 22:56 -29.61303 31.11480 301 ft 1 kts 284°
2026-05-08 22:56 -29.61312 31.11451 302 ft 7 kts 238°
2026-05-08 22:56 -29.61366 31.11396 302 ft 14 kts 219°
2026-05-08 22:57 -29.61448 31.11324 300 ft 15 kts 217°
2026-05-08 22:57 -29.61530 31.11253 299 ft 14 kts 217°
2026-05-08 22:57 -29.61608 31.11185 299 ft 14 kts 217°
2026-05-08 22:57 -29.61682 31.11120 301 ft 13 kts 216°
2026-05-08 22:58 -29.61723 31.11038 298 ft 13 kts 289°
2026-05-08 22:58 -29.61679 31.10952 300 ft 12 kts 278°
2026-05-08 22:58 -29.61728 31.10875 301 ft 12 kts 218°
2026-05-08 22:58 -29.61794 31.10816 298 ft 12 kts 217°
2026-05-08 22:59 -29.61859 31.10758 297 ft 12 kts 217°
2026-05-08 22:59 -29.61922 31.10703 297 ft 11 kts 216°
2026-05-08 22:59 -29.61984 31.10650 299 ft 11 kts 218°
2026-05-08 22:59 -29.62044 31.10598 298 ft 11 kts 216°
2026-05-08 23:00 -29.62085 31.10551 299 ft 7 kts 259°
2026-05-08 23:00 -29.62066 31.10503 297 ft 7 kts 306°
2026-05-08 23:00 -29.62063 31.10497 298 ft 0 kts 306°
2026-05-08 23:00 -29.62062 31.10496 297 ft 0 kts 307°